When you browse on this site, cookies collect data to enhance your experience and personalize the content and advertising you see.
Visit our Privacy Policy to learn more. By continuing to use the site, you agree to this use of cookies and data.
  • In Slovakia
  • List of Countries
  • For 7 days
  • Water Temperature
  • Satellite Maps
  • Weather Map
  • Weather Widgets
  • user-avatar
    Login

    Hourly Weather Munich

    Today, 16 January, Wednesday

    Time Temperature Precipitation Wind Pressure Humidity
    00:00 -2°C° 0 mm 3 mps 718 mmHg 86%
    01:00 -4°C° 0 mm 3 mps 717 mmHg 87%
    02:00 -4°C° 0 mm 3 mps 717 mmHg 88%
    03:00 -4°C° 0 mm 3 mps 716 mmHg 88%
    04:00 -5°C° 0 mm 3 mps 716 mmHg 88%
    05:00 -4°C° 0 mm 2 mps 716 mmHg 87%
    06:00 -4°C° 0 mm 2 mps 715 mmHg 86%
    07:00 -4°C° 0 mm 2 mps 715 mmHg 85%
    08:00 -4°C° 0 mm 2 mps 715 mmHg 83%
    09:00 -3°C° 0 mm 2 mps 715 mmHg 82%
    10:00 0°C° 0 mm 1 mps 715 mmHg 80%
    11:00 +2°C° 0 mm 1 mps 714 mmHg 79%
    12:00 +3°C° 0 mm 1 mps 714 mmHg 78%
    13:00 +4°C° 0 mm 1 mps 713 mmHg 77%
    14:00 +4°C° 0 mm 1 mps 713 mmHg 80%
    15:00 +3°C° 0 mm 2 mps 712 mmHg 82%
    16:00 +2°C° 0 mm 2 mps 712 mmHg 85%
    17:00 +1°C° 0 mm 2 mps 712 mmHg 84%
    18:00 +1°C° 0 mm 2 mps 712 mmHg 84%
    19:00 -1°C° 0 mm 2 mps 712 mmHg 83%
    20:00 -1°C° 0 mm 2 mps 711 mmHg 82%
    21:00 -1°C° 0 mm 2 mps 711 mmHg 81%
    22:00 -1°C° 0 mm 2 mps 711 mmHg 80%
    23:00 -1°C° 0 mm 2 mps 711 mmHg 79%

    Tomorrow, 17 January, Thursday

    Time Temperature Precipitation Wind Pressure Humidity
    00:00 -1°C° 0 mm 2 mps 711 mmHg 78%
    01:00 -2°C° 0 mm 2 mps 711 mmHg 78%
    02:00 -1°C° 0 mm 2 mps 711 mmHg 78%
    03:00 -1°C° 0 mm 3 mps 710 mmHg 78%
    04:00 -1°C° 0 mm 3 mps 710 mmHg 78%
    05:00 -1°C° 0 mm 3 mps 710 mmHg 80%
    06:00 -1°C° 0 mm 4 mps 710 mmHg 83%
    07:00 -1°C° 0 mm 4 mps 710 mmHg 85%
    08:00 0°C° 0 mm 4 mps 710 mmHg 83%
    09:00 0°C° 0 mm 4 mps 710 mmHg 82%
    10:00 +2°C° 0 mm 3 mps 710 mmHg 80%
    11:00 +3°C° 0 mm 3 mps 709 mmHg 80%
    12:00 +4°C° 0 mm 3 mps 709 mmHg 80%
    13:00 +5°C° 0 mm 3 mps 709 mmHg 80%
    14:00 +4°C° 0.1 mm 3 mps 709 mmHg 82%
    15:00 +4°C° 0.1 mm 4 mps 709 mmHg 84%
    16:00 +2°C° 0.1 mm 5 mps 709 mmHg 86%
    17:00 +2°C° 0.1 mm 6 mps 709 mmHg 84%
    18:00 +1°C° 0.1 mm 6 mps 710 mmHg 82%
    19:00 +1°C° 0.1 mm 6 mps 710 mmHg 81%
    20:00 +1°C° 0.1 mm 6 mps 711 mmHg 81%
    21:00 -1°C° 0.1 mm 6 mps 711 mmHg 81%
    22:00 -1°C° 0.1 mm 6 mps 711 mmHg 81%
    23:00 -1°C° 0.1 mm 6 mps 712 mmHg 82%

    Day after tomorrow, 18 January, Friday

    Time Temperature Precipitation Wind Pressure Humidity
    00:00 -1°C° 0.1 mm 5 mps 713 mmHg 84%
    01:00 -1°C° 0.1 mm 5 mps 713 mmHg 85%
    02:00 -2°C° 0.1 mm 5 mps 713 mmHg 86%
    03:00 -2°C° 0.1 mm 5 mps 714 mmHg 88%
    04:00 -2°C° 0.1 mm 4 mps 714 mmHg 89%
    05:00 -3°C° 0.1 mm 4 mps 715 mmHg 89%
    06:00 -2°C° 0.1 mm 3 mps 715 mmHg 89%
    07:00 -4°C° 0.1 mm 3 mps 716 mmHg 88%
    08:00 -4°C° 0 mm 3 mps 716 mmHg 86%
    09:00 -2°C° 0 mm 2 mps 717 mmHg 84%
    10:00 -2°C° 0 mm 2 mps 717 mmHg 81%
    11:00 -2°C° 0 mm 2 mps 717 mmHg 77%
    12:00 +1°C° 0 mm 1 mps 717 mmHg 73%
    13:00 +2°C° 0 mm 1 mps 717 mmHg 70%
    14:00 +1°C° 0 mm 1 mps 717 mmHg 72%
    15:00 +1°C° 0 mm 1 mps 716 mmHg 74%
    16:00 0°C° 0 mm 1 mps 716 mmHg 76%
    17:00 0°C° 0 mm 1 mps 716 mmHg 79%
    18:00 -3°C° 0 mm 2 mps 716 mmHg 82%
    19:00 -4°C° 0 mm 2 mps 717 mmHg 85%
    20:00 -4°C° 0 mm 2 mps 717 mmHg 87%
    21:00 -5°C° 0 mm 2 mps 716 mmHg 88%
    22:00 -5°C° 0 mm 2 mps 716 mmHg 89%
    23:00 -5°C° 0 mm 2 mps 716 mmHg 90%

    19 January, Saturday

    Time Temperature Precipitation Wind Pressure Humidity
    00:00 -5°C° 0 mm 2 mps 716 mmHg 90%
    01:00 -5°C° 0 mm 2 mps 716 mmHg 90%
    02:00 -5°C° 0 mm 2 mps 715 mmHg 90%
    03:00 -6°C° 0 mm 2 mps 715 mmHg 90%
    04:00 -6°C° 0 mm 2 mps 715 mmHg 90%
    05:00 -4°C° 0 mm 1 mps 715 mmHg 89%
    06:00 -4°C° 0 mm 1 mps 714 mmHg 88%
    07:00 -4°C° 0 mm 1 mps 714 mmHg 87%
    08:00 -4°C° 0 mm 1 mps 714 mmHg 84%
    09:00 -3°C° 0 mm 1 mps 714 mmHg 80%
    10:00 -2°C° 0 mm 1 mps 714 mmHg 77%
    11:00 -1°C° 0 mm 1 mps 713 mmHg 73%
    12:00 0°C° 0 mm 1 mps 713 mmHg 69%
    13:00 +1°C° 0 mm 1 mps 712 mmHg 65%
    14:00 +1°C° 0 mm 1 mps 712 mmHg 69%
    15:00 +1°C° 0 mm 1 mps 712 mmHg 72%
    16:00 0°C° 0 mm 1 mps 712 mmHg 75%
    17:00 -1°C° 0 mm 1 mps 712 mmHg 79%
    18:00 -1°C° 0 mm 1 mps 712 mmHg 83%
    19:00 -2°C° 0 mm 1 mps 712 mmHg 88%
    20:00 -2°C° 0 mm 1 mps 712 mmHg 88%
    21:00 -2°C° 0 mm 1 mps 712 mmHg 89%
    22:00 -2°C° 0 mm 1 mps 712 mmHg 89%
    23:00 -3°C° 0 mm 1 mps 712 mmHg 89%

    20 January, Sunday

    Time Temperature Precipitation Wind Pressure Humidity
    00:00 -3°C° 0 mm 1 mps 712 mmHg 88%
    01:00 -3°C° 0 mm 1 mps 712 mmHg 87%
    02:00 -3°C° 0 mm 1 mps 712 mmHg 86%
    03:00 -2°C° 0 mm 1 mps 712 mmHg 85%
    04:00 -2°C° 0 mm 1 mps 712 mmHg 84%
    05:00 -2°C° 0 mm 1 mps 712 mmHg 82%
    06:00 -2°C° 0 mm 1 mps 712 mmHg 81%
    07:00 -2°C° 0 mm 1 mps 712 mmHg 79%
    08:00 -1°C° 0 mm 1 mps 713 mmHg 77%
    09:00 0°C° 0 mm 1 mps 713 mmHg 75%
    10:00 -1°C° 0 mm 0 mps 713 mmHg 72%
    11:00 0°C° 0 mm 0 mps 713 mmHg 71%
    12:00 +1°C° 0 mm 0 mps 713 mmHg 69%
    13:00 +2°C° 0 mm 0 mps 713 mmHg 68%
    14:00 +2°C° 0.1 mm 0 mps 713 mmHg 72%
    15:00 +1°C° 0.1 mm 0 mps 713 mmHg 76%
    16:00 +1°C° 0.1 mm 0 mps 713 mmHg 80%
    17:00 +1°C° 0.1 mm 0 mps 714 mmHg 82%
    18:00 0°C° 0.1 mm 0 mps 714 mmHg 84%
    19:00 +1°C° 0.1 mm 1 mps 715 mmHg 87%
    20:00 0°C° 0.1 mm 0 mps 715 mmHg 89%
    21:00 0°C° 0.1 mm 0 mps 716 mmHg 91%
    22:00 0°C° 0.1 mm 0 mps 716 mmHg 93%
    23:00 0°C° 0.1 mm 0 mps 716 mmHg 93%

    21 January, Monday

    Time Temperature Precipitation Wind Pressure Humidity
    00:00 0°C° 0.1 mm 0 mps 716 mmHg 94%
    01:00 -1°C° 0.1 mm 0 mps 716 mmHg 95%
    02:00 -1°C° 0.1 mm 0 mps 716 mmHg 95%
    03:00 -1°C° 0.1 mm 0 mps 716 mmHg 95%
    04:00 -1°C° 0.1 mm 0 mps 716 mmHg 96%
    05:00 0°C° 0.1 mm 1 mps 717 mmHg 96%
    06:00 0°C° 0.1 mm 1 mps 717 mmHg 96%
    07:00 0°C° 0.1 mm 1 mps 717 mmHg 96%
    08:00 0°C° 0.1 mm 1 mps 717 mmHg 95%
    09:00 0°C° 0.1 mm 1 mps 717 mmHg 94%
    10:00 -2°C° 0.1 mm 2 mps 718 mmHg 93%
    11:00 -1°C° 0 mm 2 mps 717 mmHg 92%
    12:00 -1°C° 0 mm 2 mps 717 mmHg 91%
    13:00 -1°C° 0 mm 3 mps 717 mmHg 89%
    14:00 -1°C° 0 mm 3 mps 716 mmHg 89%
    15:00 -1°C° 0 mm 3 mps 716 mmHg 88%
    16:00 -2°C° 0 mm 3 mps 716 mmHg 87%
    17:00 -2°C° 0 mm 3 mps 716 mmHg 87%
    18:00 -3°C° 0 mm 2 mps 717 mmHg 88%
    19:00 -3°C° 0 mm 2 mps 717 mmHg 88%
    20:00 -4°C° 0 mm 2 mps 717 mmHg 89%
    21:00 -4°C° 0 mm 2 mps 716 mmHg 89%
    22:00 -5°C° 0 mm 2 mps 716 mmHg 89%
    23:00 -5°C° 0 mm 2 mps 716 mmHg 89%
    Show more